Location: Wellington
(40.6823°N, 75.5035°W)
Time: 05:18:08
(UTC+00:00)

Daily predictions for brighter satellites

Satellite Brightness Start Highest point End
(mag) Time Altitude Azimuth Time Altitude Azimuth Time Altitude Azimuth
RESURS DK-1 3.3 00:02:46 10° NW 00:05:59 45° WNW 00:05:59 45° WNW
Okean 2 Rocket 3.5 00:03:39 10° SSW 00:07:59 59° W 00:08:01 59° WNW
Nadezhda 4 Rocket 4.1 00:03:53 10° NNW 00:10:10 72° W 00:16:19 10° S
COSMOS 2406 4.3 00:04:48 10° NNW 00:07:52 30° N 00:07:52 30° N
ATLAS 2AS CENTAUR R/B 4.2 00:07:25 10° NNW 00:10:49 20° NNE 00:10:49 20° NNE
ISS -0.9 00:13:10 10° WNW 00:14:17 16° WNW 00:14:17 16° WNW
SJ 16-02 2.3 00:11:45 10° SW 00:15:04 43° WSW 00:15:04 43° WSW
Cosmos 2195 Rocket 4.4 00:17:39 10° N 00:24:00 84° W 00:25:05 63° S
ATLAS 5 CENTAUR R/B 4.2 00:21:17 10° WNW 00:25:08 23° WSW 00:29:33 10° SSW
USA 281 4.2 01:07:16 41° NW 01:07:16 41° NW 01:11:29 10° NNW
Cosmos 2237 Rocket 3.8 08:43:08 26° NNE 08:43:08 26° NNE 08:45:33 10° NNE
Cosmos 2278 Rocket 3.9 08:43:28 25° SE 08:43:28 25° SE 08:45:47 10° SSE
SJ 16-02 4.2 08:41:28 13° NE 08:42:00 13° ENE 08:44:04 10° E
Cosmos 1943 Rocket 4.0 08:46:29 21° SE 08:46:29 21° SE 08:48:13 10° SSE
USA 267 3.2 08:47:09 10° NE 08:53:32 76° ESE 08:53:32 76° ESE
ATLAS 3B R/B 4.3 08:55:51 10° S 09:02:23 35° ESE 09:09:14 10° NE
Cosmos 2292 Rocket 4.1 09:20:13 78° NE 09:20:13 78° NE 09:26:01 10° N
ACS3 Solar Sail 3.8 09:19:56 10° N 09:20:28 12° N 09:20:28 12° N
USA 234 4.0 09:22:29 10° E 09:28:37 44° NNE 09:31:50 26° NNW
Cosmos 1864 Rocket 4.4 09:30:11 41° NNW 09:32:24 68° W 09:38:40 10° S
Cosmos 1420 Rocket 4.2 09:38:44 53° NNW 09:38:44 53° NNW 09:43:06 10° NNE
Cosmos 1624 Rocket 4.0 09:34:26 19° S 09:38:10 78° ESE 09:43:21 10° NNE
Cosmos 2061 Rocket 4.1 09:33:03 10° N 09:39:15 76° E 09:45:26 10° SSE
Cosmos 2251 Rocket 3.4 09:38:22 43° NNW 09:40:12 90° SW 09:45:33 10° SSE
SL-16 R/B 2.5 09:37:48 10° S 09:43:24 66° ESE 09:49:03 10° NNE
PAYLOAD A 4.0 09:40:40 10° N 09:45:53 58° WNW 09:45:53 58° WNW
Cosmos 1725 Rocket 4.0 09:40:33 10° NNW 09:46:44 58° W 09:52:51 10° S
Cosmos 2233 Rocket 3.9 09:42:27 10° N 09:48:46 82° W 09:54:59 10° S
BREEZE-M DEB (TANK) 2.7 09:54:02 38° SE 09:54:02 38° SE 09:56:45 10° ENE
CZ-2C R/B 3.7 09:55:52 10° N 09:58:22 25° NNW 09:58:22 25° NNW
Cosmos 2346 Rocket 4.3 09:55:33 10° S 10:01:41 84° W 10:07:48 10° N
SJ-11-01 4.1 09:59:53 10° N 10:04:35 77° WNW 10:09:16 10° SSW
Cosmos 1190 Rocket 4.2 10:15:29 23° NW 10:18:27 47° WSW 10:23:25 10° S
SKYMED 2 3.5 10:15:34 10° SSE 10:19:54 89° E 10:24:16 10° NNW
Aureole 3 4.2 10:14:11 10° SSW 10:20:08 58° W 10:25:09 10° N
SJ 16-02 1.3 10:18:05 24° NNW 10:20:31 57° WSW 10:24:42 10° S
Cosmos 676 Rocket 3.9 10:15:42 10° NNW 10:20:56 77° WSW 10:26:05 10° SSE
COSMO-SKYMED 1 2.8 10:18:37 10° SSE 10:22:41 65° ENE 10:26:47 10° N
Cosmos 2278 Rocket 3.9 10:25:22 15° WSW 10:25:22 15° WSW 10:27:07 10° SW
Cosmos 2237 Rocket 3.6 10:25:00 18° NW 10:25:00 18° NW 10:28:25 10° N
Cosmos 1943 Rocket 4.1 10:28:04 11° SW 10:28:04 11° SW 10:28:39 10° SW
Cosmos 2056 Rocket 4.0 10:22:03 10° SW 10:27:03 38° WNW 10:32:04 10° N
Cosmos 2297 4.1 10:25:26 10° NNW 10:31:03 66° ENE 10:36:38 10° SSE
USA 229 DEB 3.3 10:25:53 10° SW 10:31:40 68° NW 10:38:11 10° NNE
USA 229 3.3 10:26:06 10° SW 10:31:53 69° NW 10:38:23 10° NNE
Cosmos 1954 Rocket 4.3 10:28:36 15° NW 10:32:36 43° WSW 10:37:26 10° S
Cosmos 1025 Rocket 3.8 10:28:28 10° S 10:32:42 54° E 10:36:58 10° NNE
Cosmos 1943 3.8 10:28:36 10° S 10:34:05 60° ESE 10:39:36 10° NNE
Cosmos 2369 Rocket 2.4 10:30:24 10° NNW 10:36:06 75° ENE 10:41:48 10° SSE
USA 267 3.9 10:30:28 10° NE 10:36:23 38° NNW 10:40:54 17° W
Cosmos 1674 Rocket 3.5 10:33:59 10° S 10:38:25 89° WNW 10:42:51 10° N
Lacrosse 5 rocket 3.3 10:38:52 10° N 10:40:50 14° NNE 10:42:46 10° ENE
IRS-1D 3.7 10:36:46 10° N 10:41:25 43° WNW 10:46:02 10° SW
Cosmos 1484 Rocket 2.7 10:39:32 10° NNE 10:43:04 74° ESE 10:46:34 10° S
Cosmos 1400 Rocket 2.5 10:40:10 10° N 10:43:52 89° WNW 10:47:31 10° S
SWARM A 4.2 10:40:58 10° S 10:44:14 60° W 10:47:31 10° N
RUBIN 8/PSLV 4.5 10:41:27 10° N 10:45:50 70° WNW 10:50:09 10° SSW
Cosmos 1513 Rocket 4.5 10:40:51 10° NNW 10:47:12 69° W 10:53:25 10° S
Cosmos 1869 4.1 10:47:38 17° NW 10:49:18 23° W 10:52:06 10° SW
Helios 1A Rocket 2.8 10:46:24 10° S 10:49:35 40° W 10:52:47 10° NNW
Cosmos 2221 Rocket 3.8 10:45:18 10° S 10:49:48 77° E 10:54:21 10° N
Lacrosse 4 Rocket 3.9 10:47:36 10° NNE 10:49:55 15° NE 10:52:12 10° E
Cosmos 371 Rocket 3.9 10:45:36 10° NW 10:50:00 35° WSW 10:54:21 10° SSW
Cosmos 968 Rocket 3.5 10:47:28 10° NNW 10:52:44 83° WSW 10:57:58 10° SSE
ATLAS 3B R/B 3.1 10:45:31 10° SW 10:52:50 55° NW 11:00:34 10° NNE
Cosmos 1812 3.1 10:53:54 14° NW 10:55:41 24° W 10:58:05 10° SSW
CZ-4 R/B 4.5 10:52:23 10° N 10:56:40 33° WNW 11:00:52 10° SW
Cosmos 1741 Rocket 4.2 10:51:31 10° NNW 10:56:51 79° ENE 11:02:09 10° SSE
CENTAUR R/B 3.5 10:50:08 10° NW 10:58:45 88° NE 11:08:17 10° SSE
Cosmos 2151 Rocket 3.6 10:55:20 10° NNW 10:59:46 64° W 11:04:09 10° S
Cosmos 1110 Rocket 4.2 10:57:25 10° SW 11:02:31 49° WNW 11:07:40 10° N
Cosmos 1378 Rocket 4.3 11:02:19 10° SW 11:06:04 30° WNW 11:09:51 10° NNW
Cosmos 1302 Rocket 4.3 11:01:03 10° S 11:06:10 72° ESE 11:11:20 10° NNE
Sich 1 Rocket 3.6 11:02:50 10° N 11:07:22 84° W 11:11:50 10° S
USA 234 3.4 11:04:59 10° SSE 11:11:27 61° SW 11:17:56 10° NW
Thor Agena Rocket 3.8 11:06:43 10° NNE 11:11:55 75° ESE 11:17:00 10° S
Cosmos 1818 3.8 11:09:03 10° SSW 11:14:27 80° ESE 11:19:55 10° NE
Okean 1 Rocket 3.0 11:12:30 10° NNW 11:16:47 65° W 11:21:01 10° S
Tsikada Rocket 4.4 11:11:15 10° S 11:17:31 75° E 11:23:55 10° N
Cosmos 332 Rocket 3.8 11:14:11 10° NNW 11:18:57 69° WSW 11:23:40 10° S
CZ-3 R/B 3.1 11:10:18 10° WSW 11:19:48 30° SSW 11:24:12 10° SE
